Pleasanton, CA

7:22 PM PST on February 12, 2016 (GMT -0800)
Livermore Municipal

Weather History for KLVK - June, 2013

Change the Weather History Date:

Friday, June 28, 2013

  Actual Average Record
Temperature  
Mean Temperature 84 °F 70 °F  
Max Temperature 103 °F 85 °F 109 °F (2009)
Min Temperature 64 °F 56 °F 41 °F (1964)
Degree Days  
Heating Degree Days 0 0  
Month to date heating degree days 5 31  
Since 1 June heating degree days 5 31  
Since 1 July heating degree days 2395 2779  
Cooling Degree Days 19 6  
Month to date cooling degree days 150 98  
Year to date cooling degree days 251 151  
Since 1 June cooling degree days 150 98  
Growing Degree Days 33 (Base 50)    
Moisture  
Dew Point 54 °F    
Average Humidity 43    
Maximum Humidity 67    
Minimum Humidity 19    
Precipitation  
Precipitation 0.00 in 0.00 in 0.78 in (2011)
Month to date precipitation 0.04 0.04  
Year to date precipitation 2.12 9.90  
Since 1 July precipitation 10.41  
Sea Level Pressure  
Sea Level Pressure 29.94 in    
Wind  
Wind Speed 5 mph (West)    
Max Wind Speed 21 mph    
Max Gust Speed 24 mph    
Visibility 10 miles    
Events      
T = Trace of Precipitation, MM = Missing Value Source: NWS Daily Summary

Daily Weather History Graph

Daily Weather History Graph

Search for Another Location

Airport or City:

Trip Planner

Search our weather history database for the weather conditions in past years. The results will help you decide how hot, cold, wet, or windy it might be!

Date:

Astronomy

Jun. 28, 2013 Rise Set
Actual Time 5:48 AM PDT 8:33 PM PDT
Civil Twilight 5:16 AM PDT 9:04 PM PDT
Nautical Twilight 4:37 AM PDT 9:43 PM PDT
Astronomical Twilight 3:53 AM PDT 10:27 PM PDT
Moon No Moon Rise 11:54 AM PDT (6/28)
Length of Visible Light 15h 47m
Length of Day
14h 44m
Waning Gibbous, 65% of the Moon is Illuminated
Jun 28
Waning Gibbous
Jun 29
Last Quarter
Jul 8
New
Jul 15
First Quarter
Jul 22
Full

Hourly Weather History & Observations

Time (PDT) Temp. Heat Index Dew Point Humidity Pressure Visibility Wind Dir Wind Speed Gust Speed Precip Events Conditions
12:53 AM 70.0 °F - 55.0 °F 59% 30.01 in 10.0 mi Calm Calm - N/A   Clear
1:53 AM 68.0 °F - 55.9 °F 65% 30.01 in 10.0 mi WNW 3.5 mph - N/A   Clear
2:53 AM 68.0 °F - 55.9 °F 65% 30.00 in 10.0 mi Calm Calm - N/A   Clear
3:53 AM 68.0 °F - 55.0 °F 63% 29.99 in 10.0 mi Calm Calm - N/A   Clear
4:53 AM 66.0 °F - 54.0 °F 65% 29.99 in 10.0 mi Calm Calm - N/A   Clear
5:53 AM 64.9 °F - 54.0 °F 68% 29.99 in 10.0 mi Calm Calm - N/A   Clear
6:53 AM 68.0 °F - 54.0 °F 61% 30.00 in 10.0 mi Calm Calm - N/A   Clear
7:53 AM 72.0 °F - 54.0 °F 53% 30.00 in 10.0 mi Calm Calm - N/A   Clear
8:53 AM 77.0 °F - 54.0 °F 45% 30.00 in 10.0 mi Calm Calm - N/A   Clear
9:53 AM 82.9 °F 82.0 °F 55.0 °F 38% 29.98 in 10.0 mi Calm Calm - N/A   Clear
10:53 AM 89.1 °F 87.7 °F 57.0 °F 34% 29.96 in 10.0 mi SSW 3.5 mph - N/A   Clear
11:53 AM 95.0 °F 93.4 °F 55.9 °F 27% 29.95 in 10.0 mi Calm Calm - N/A   Clear
12:53 PM 98.1 °F 96.1 °F 54.0 °F 23% 29.94 in 10.0 mi Variable 3.5 mph - N/A   Clear
1:53 PM 100.9 °F 99.6 °F 55.0 °F 22% 29.92 in 10.0 mi West 10.4 mph - N/A   Clear
2:53 PM 102.0 °F 101.1 °F 55.9 °F 22% 29.91 in 10.0 mi West 11.5 mph 19.6 mph N/A   Clear
3:53 PM 100.0 °F 97.9 °F 53.1 °F 21% 29.89 in 10.0 mi WNW 17.3 mph - N/A   Clear
4:53 PM 99.0 °F - 51.1 °F 20% 29.88 in 10.0 mi West 17.3 mph - N/A   Clear
5:53 PM 100.0 °F - 50.0 °F 18% 29.88 in 10.0 mi West 12.7 mph - N/A   Clear
6:53 PM 96.1 °F - 48.9 °F 20% 29.88 in 10.0 mi West 12.7 mph - N/A   Clear
7:53 PM 91.9 °F - 50.0 °F 24% 29.88 in 10.0 mi West 5.8 mph - N/A   Clear
8:53 PM 87.1 °F - 52.0 °F 30% 29.89 in 10.0 mi SSW 3.5 mph - N/A   Clear
9:53 PM 81.0 °F 80.5 °F 54.0 °F 39% 29.90 in 10.0 mi WNW 4.6 mph - N/A   Clear
10:53 PM 80.1 °F 80.2 °F 55.9 °F 43% 29.90 in 10.0 mi Calm Calm - N/A   Clear
11:53 PM 78.1 °F - 55.0 °F 45% 29.90 in 10.0 mi Calm Calm - N/A   Clear